Location: Haliburton Scout Reserve
(45.0900°N, 78.3200°W)
Time: 10:09:08
(UTC-05:00)

PCSat - Visible Passes

Search period start: 05 February 2023 00:00
Search period end: 15 February 2023 00:00
Orbit: 785 x 793 km, 67.1° (Epoch: 04 February)

Date Brightness Start Highest point End Pass type
(mag) Time Alt. Az. Time Alt. Az. Time Alt. Az.
05 Feb 10.9 04:12:19 36° ENE 04:12:19 36° ENE 04:15:42 10° NE visible
05 Feb 10.4 05:53:03 27° WNW 05:54:04 29° NW 05:58:47 10° NNE visible
06 Feb 11.8 03:42:21 21° ENE 03:42:21 21° ENE 03:44:18 10° NE visible
06 Feb 10.2 05:23:03 36° NW 05:23:03 36° NW 05:27:42 10° NNE visible
07 Feb 12.4 03:12:16 12° NE 03:12:16 12° NE 03:12:47 10° NE visible
07 Feb 10.5 04:52:58 36° N 04:52:58 36° N 04:56:35 10° NNE visible
07 Feb 11.5 06:33:43 10° NW 06:36:05 13° NNW 06:38:27 10° N visible
08 Feb 11.1 04:22:49 28° NNE 04:22:49 28° NNE 04:25:25 10° NNE visible
08 Feb 11.3 06:03:30 15° NW 06:04:29 15° NNW 06:07:40 10° N visible
09 Feb 11.7 03:52:34 20° NNE 03:52:34 20° NNE 03:54:12 10° NNE visible
09 Feb 11.1 05:33:16 19° NNW 05:33:16 19° NNW 05:36:44 10° N visible
10 Feb 12.2 03:22:18 14° NE 03:22:18 14° NE 03:22:57 10° NE visible
10 Feb 11.2 05:02:59 20° NNW 05:02:59 20° NNW 05:05:45 10° NNE visible
11 Feb 11.4 04:32:39 20° N 04:32:39 20° N 04:34:42 10° NNE visible
12 Feb 11.8 04:02:17 17° N 04:02:17 17° N 04:03:37 10° NNE visible
12 Feb 11.7 05:42:58 10° NNW 05:43:39 11° NNW 05:44:45 10° NNW visible
13 Feb 12.2 03:31:53 13° NNE 03:31:53 13° NNE 03:32:30 10° NNE visible
13 Feb 11.7 05:12:34 12° NNW 05:12:34 12° NNW 05:14:21 10° N visible
14 Feb 11.8 04:42:08 13° NNW 04:42:08 13° NNW 04:43:33 10° N visible
